Temp
80 81 81 80 80 81 80 81 81 81 80 80 80 80 80 81 83 82 83 82 82 82 81 81 81 80 82 80 79 80 80 79 80 80 80 80 80 81 85 83 82 81
80 81 82 82 81 82 81 82 81 81 80 80 81 81 82 82 83 82 82 82 83 82 81 82 81 80 80 81 80 79 79 79 78 84 80 81 80 81 81 82 83 82
81 81 81 81 82 82 84 84 82 82 81 82 82 82 83 84 83 81 82 82 83 83 82 81 81 81 81 80 80 80 80 78 78 81 79 79 80 79 79 82 82 83
81 82 83 84 84 83 84 83 82 82 83 82 81 84 85 87 83 83 81 84 82 82 82 82 83 83 82 81 80 80 79 79 80 79 79 79 79 80 79 80 81 83
83 82 83 85 85 84 84 83 84 83 84 82 84 83 82 80 83 83 82 82 82 82 82 82 82 82 82 80 80 79 80 79 80 79 78 78 78 79 81 81 80 81
82 82 81 83 83 84 84 84 84 84 84 83 83 83 83 81 82 82 82 83 83 84 84 83 83 83 83 81 80 80 81 81 81 79 79 78 79 80 84 83 80 80
83 83 83 84 84 85 84 84 83 84 85 84 83 83 83 83 82 82 82 83 84 83 84 82 82 82 82 81 80 79 80 79 80 79 79 79 79 79 82 82 80 81
85 85 84 84 85 85 84 84 84 83 84 84 84 83 84 83 83 85 83 83 84 83 83 83 82 80 83 82 81 80 80 84 83 78 78 78 78 78 79 82 81 79
86 85 85 85 86 85 86 86 86 85 85 84 85 85 85 84 84 85 83 83 83 82 81 82 82 83 82 82 81 81 81 83 84 81 80 80 79 78 80 80 80 80
85 86 87 87 87 86 86 87 87 87 86 85 86 85 85 84 85 84 83 82 82 82 81 82 81 82 82 83 81 82 81 80 80 80 81 81 80 80 81 81 81 79
86 87 86 87 87 88 88 89 89 88 87 86 87 86 86 85 83 83 81 81 83 82 81 81 81 82 82 83 83 83 83 83 82 80 80 80 81 80 82 80 80 81
86 86 86 87 88 88 89 89 89 89 87 87 87 86 85 86 85 84 83 81 82 82 82 81 81 81 82 83 84 84 83 84 83 82 81 81 81 82 82 83 83 81
84 84 86 87 87 88 89 89 89 90 89 88 87 87 86 86 85 85 83 83 82 83 83 82 82 83 81 82 83 83 82 82 82 81 82 82 82 83 84 84 83 83
82 82 84 83 85 84 85 87 89 89 89 88 88 87 86 86 86 86 84 84 83 83 83 83 82 83 81 81 82 83 83 81 81 81 82 82 82 82 82 83 83 84
80 81 79 80 82 81 81 82 84 85 85 85 87 86 87 87 87 87 85 84 84 83 84 85 84 84 84 83 82 82 82 82 82 82 82 80 80 81 82 83 84 86
74 77 78 77 77 77 78 79 80 81 81 81 81 84 84 84 85 85 85 84 84 83 84 86 83 79 77 80 83 82 81 83 83 81 81 80 80 79 81 83 85 86
71 71 74 74 74 75 76 77 78 79 78 78 78 78 77 78 78 77 79 80 82 82 80 78 76 76 75 68 71 78 84 80 80 79 80 81 80 78 78 81 82 83
73 74 73 73 73 73 73 73 75 76 76 77 78 77 76 79 79 77 76 79 78 76 77 79 77 76 70 68 68 69 75 80 81 82 83 81 81 81 81 81 81 84
73 73 72 73 73 73 73 72 72 73 75 76 76 76 75 76 77 78 77 78 76 76 76 75 78 74 67 68 67 68 68 76 82 84 83 82 81 80 80 80 80 80
74 73 73 73 74 73 73 72 72 72 73 76 76 75 74 74 77 76 75 75 77 77 76 77 77 67 63 64 66 67 68 72 78 82 82 82 80 81 82 81 79 78
74 74 74 74 73 73 73 73 73 73 75 74 74 74 74 74 74 75 76 77 78 77 77 76 77 65 62 64 63 66 69 75 77 81 82 81 81 80 78 78 76 77
72 72 71 71 71 72 72 72 72 72 72 73 74 74 74 75 76 76 75 75 75 76 76 74 70 59 60 61 61 63 66 75 76 78 79 79 80 78 76 75 75 75
71 71 70 70 70 71 72 72 70 70 71 72 71 73 73 74 75 75 74 74 74 75 74 71 70 61 58 59 60 61 69 78 78 79 78 79 78 76 75 76 76 75
72 71 70 70 69 70 70 71 70 70 70 73 71 71 71 72 73 72 73 73 74 74 73 71 67 61 57 57 58 60 70 77 77 78 78 77 77 76 75 74 77 83
71 71 71 71 70 70 71 70 70 70 71 71 71 71 71 71 72 72 71 72 73 73 77 70 66 64 57 58 58 59 69 75 76 76 76 75 75 75 75 74 74 76
70 72 72 71 70 71 71 71 72 72 71 71 71 70 71 70 70 70 70 71 72 73 71 68 66 65 63 56 57 59 63 74 75 73 74 74 75 74 74 74 73 71
MSLP
1017.47 1017.71 1017.99 1018.23 1018.39 1018.43 1018.63 1018.87 1018.95 1019.11 1019.15 1019.15 1019.35 1019.31 1019.23 1019.07 1018.91 1019.07 1019.11 1019.15 1019.27 1019.43 1019.55 1019.63 1019.67 1019.79 1019.83 1019.91 1019.95 1020.11 1020.23 1020.31 1020.35 1020.31 1020.39 1020.43 1020.51 1020.55 1020.71 1020.63 1020.51 1020.51
1017.35 1017.47 1017.67 1017.87 1018.11 1018.15 1018.27 1018.35 1018.59 1018.79 1018.95 1018.95 1018.95 1018.95 1018.83 1018.83 1018.87 1018.91 1019.11 1019.23 1019.23 1019.39 1019.39 1019.55 1019.59 1019.71 1019.79 1019.87 1019.95 1020.19 1020.31 1020.35 1020.51 1020.11 1020.39 1020.51 1020.51 1020.51 1020.63 1020.51 1020.51 1020.27
1017.23 1017.39 1017.59 1017.87 1018.03 1018.11 1018.15 1018.07 1018.27 1018.43 1018.67 1018.63 1018.59 1018.67 1018.75 1018.67 1018.91 1018.87 1018.95 1019.07 1019.27 1019.35 1019.39 1019.43 1019.55 1019.55 1019.67 1019.79 1019.87 1020.07 1020.27 1020.31 1020.43 1020.23 1020.27 1020.47 1020.43 1020.59 1020.55 1020.47 1020.47 1020.39
1017.11 1017.15 1017.35 1017.47 1017.59 1017.83 1017.83 1018.03 1018.19 1018.27 1018.35 1018.55 1018.63 1018.47 1018.43 1018.51 1018.67 1018.91 1018.99 1018.99 1019.19 1019.31 1019.35 1019.39 1019.51 1019.55 1019.59 1019.67 1019.79 1019.99 1020.07 1020.11 1020.07 1020.11 1020.31 1020.31 1020.35 1020.39 1020.51 1020.39 1020.43 1020.35
1016.95 1017.07 1017.11 1017.19 1017.27 1017.39 1017.55 1017.87 1018.07 1018.15 1018.23 1018.31 1018.31 1018.35 1018.43 1018.51 1018.67 1018.83 1018.95 1019.07 1019.11 1019.27 1019.27 1019.35 1019.35 1019.47 1019.51 1019.67 1019.75 1020.03 1020.03 1020.15 1019.99 1020.03 1020.27 1020.47 1020.31 1020.39 1020.35 1020.35 1020.43 1020.51
1016.71 1016.79 1016.91 1016.99 1017.11 1017.23 1017.51 1017.63 1017.71 1017.83 1017.99 1018.23 1018.23 1018.19 1018.31 1018.39 1018.51 1018.67 1018.83 1019.03 1019.07 1019.11 1019.19 1019.23 1019.35 1019.35 1019.39 1019.59 1019.79 1019.95 1020.03 1020.19 1020.03 1020.07 1020.27 1020.43 1020.39 1020.19 1020.19 1020.23 1020.35 1020.51
1016.67 1016.75 1016.87 1016.75 1016.87 1016.95 1017.19 1017.31 1017.39 1017.47 1017.63 1017.75 1017.87 1018.15 1018.11 1018.39 1018.51 1018.55 1018.63 1018.71 1018.83 1018.95 1019.03 1019.15 1019.23 1019.35 1019.31 1019.47 1019.75 1019.99 1019.99 1020.03 1020.03 1020.11 1020.31 1020.35 1020.35 1020.35 1020.11 1020.15 1020.23 1020.35
1016.39 1016.47 1016.59 1016.63 1016.83 1016.87 1016.99 1017.11 1017.19 1017.31 1017.35 1017.47 1017.83 1017.83 1017.87 1018.19 1018.35 1018.35 1018.39 1018.51 1018.67 1018.79 1018.83 1018.91 1018.99 1019.15 1019.19 1019.31 1019.67 1019.87 1019.95 1019.83 1019.99 1020.11 1020.31 1020.39 1020.31 1020.51 1020.27 1020.11 1020.15 1020.31
1016.03 1016.31 1016.39 1016.55 1016.75 1016.83 1016.95 1016.99 1017.03 1017.07 1017.03 1017.39 1017.55 1017.63 1017.63 1017.83 1018.07 1018.11 1018.23 1018.31 1018.47 1018.59 1018.67 1018.83 1018.87 1018.99 1018.99 1019.19 1019.43 1019.67 1019.91 1019.87 1019.79 1019.95 1020.15 1020.35 1020.43 1020.43 1020.31 1020.11 1020.19 1020.27
1015.91 1015.99 1016.23 1016.43 1016.63 1016.63 1016.79 1016.71 1016.75 1016.83 1016.87 1017.11 1017.19 1017.27 1017.55 1017.55 1017.59 1017.79 1017.95 1018.19 1018.39 1018.47 1018.55 1018.67 1018.79 1018.87 1018.91 1018.99 1019.19 1019.39 1019.63 1019.79 1019.75 1019.83 1019.87 1019.99 1020.15 1020.15 1020.11 1020.07 1020.11 1020.23
1015.75 1015.87 1016.15 1016.31 1016.43 1016.39 1016.43 1016.35 1016.43 1016.55 1016.63 1016.87 1016.99 1017.19 1017.23 1017.39 1017.51 1017.51 1017.83 1018.07 1018.31 1018.43 1018.51 1018.59 1018.63 1018.67 1018.83 1018.91 1018.91 1018.95 1019.19 1019.39 1019.51 1019.59 1019.67 1019.75 1019.75 1019.79 1019.75 1019.87 1019.95 1020.03
1015.51 1015.71 1015.95 1016.11 1016.19 1016.19 1016.19 1016.15 1016.11 1016.23 1016.43 1016.55 1016.67 1016.95 1017.03 1017.11 1017.35 1017.47 1017.67 1017.95 1018.03 1018.15 1018.23 1018.31 1018.35 1018.47 1018.59 1018.71 1018.75 1018.79 1018.91 1018.99 1019.11 1019.27 1019.35 1019.43 1019.47 1019.51 1019.51 1019.51 1019.67 1019.67
1015.47 1015.55 1015.63 1015.79 1015.87 1015.91 1015.83 1015.91 1015.95 1015.95 1016.11 1016.35 1016.35 1016.55 1016.83 1017.07 1017.15 1017.35 1017.43 1017.63 1017.79 1017.87 1018.03 1018.11 1018.23 1018.27 1018.39 1018.47 1018.55 1018.59 1018.71 1018.87 1018.99 1019.11 1019.19 1019.19 1019.19 1019.23 1019.19 1019.19 1019.19 1019.23
1015.31 1015.35 1015.47 1015.55 1015.51 1015.59 1015.67 1015.67 1015.71 1015.67 1015.71 1015.83 1015.99 1016.39 1016.63 1016.79 1016.99 1017.15 1017.23 1017.31 1017.55 1017.71 1017.75 1017.83 1018.07 1018.23 1018.31 1018.39 1018.47 1018.51 1018.59 1018.71 1018.79 1018.99 1019.11 1019.11 1019.07 1019.03 1019.03 1019.03 1018.95 1018.91
1015.35 1015.35 1015.47 1015.59 1015.59 1015.59 1015.63 1015.71 1015.79 1015.75 1015.71 1015.75 1015.91 1016.15 1016.27 1016.43 1016.51 1016.71 1017.03 1017.23 1017.31 1017.47 1017.63 1017.71 1017.99 1018.19 1018.27 1018.35 1018.51 1018.51 1018.51 1018.63 1018.71 1018.79 1018.91 1019.11 1019.11 1019.07 1018.95 1018.91 1018.87 1018.75
1017.07 1016.35 1016.07 1016.11 1016.15 1016.11 1016.03 1015.99 1016.15 1016.23 1016.19 1016.03 1016.23 1016.23 1016.27 1016.27 1016.35 1016.51 1016.75 1017.07 1017.27 1017.35 1017.43 1017.63 1018.23 1019.03 1019.19 1018.95 1018.23 1018.35 1018.43 1018.47 1018.63 1018.71 1018.79 1018.91 1019.07 1019.15 1019.07 1018.91 1018.75 1018.59
1017.91 1017.67 1016.99 1016.59 1016.63 1016.51 1016.23 1016.31 1016.43 1016.35 1016.39 1016.47 1016.47 1016.51 1016.63 1016.55 1016.59 1016.87 1016.95 1016.99 1017.15 1017.39 1017.67 1017.87 1018.15 1018.15 1017.99 1018.43 1018.87 1018.31 1018.07 1018.31 1018.47 1018.63 1018.63 1018.75 1018.87 1019.03 1019.15 1018.99 1018.71 1018.47
1017.19 1017.11 1016.87 1016.55 1016.35 1016.55 1016.55 1016.51 1016.51 1016.63 1016.71 1016.63 1016.59 1016.71 1016.67 1016.55 1016.71 1016.79 1016.91 1017.11 1017.27 1017.43 1017.71 1017.91 1018.03 1017.99 1018.11 1018.27 1018.27 1018.31 1018.31 1018.27 1018.19 1018.39 1018.43 1018.51 1018.55 1018.67 1018.63 1018.59 1018.55 1018.43
1017.11 1017.07 1016.95 1016.83 1016.55 1016.39 1016.39 1016.47 1016.59 1016.75 1016.87 1016.91 1016.99 1016.75 1016.67 1016.79 1016.83 1016.83 1016.99 1017.03 1017.23 1017.55 1017.75 1017.67 1017.63 1017.63 1017.95 1018.07 1018.15 1018.19 1018.07 1018.19 1018.23 1018.07 1018.19 1018.19 1018.23 1018.31 1018.39 1018.47 1018.47 1018.47
1017.47 1017.27 1017.07 1016.95 1016.59 1016.35 1016.39 1016.51 1016.55 1016.63 1016.71 1016.67 1016.79 1016.91 1017.07 1017.11 1016.99 1016.99 1016.99 1017.11 1017.23 1017.39 1017.55 1017.59 1017.67 1017.83 1017.95 1017.91 1018.03 1017.99 1017.79 1017.91 1017.99 1018.11 1017.95 1017.87 1017.91 1018.03 1018.19 1018.31 1018.39 1018.59
1017.03 1016.75 1016.67 1016.59 1016.51 1016.47 1016.51 1016.55 1016.51 1016.55 1016.59 1016.67 1016.71 1016.87 1017.07 1017.19 1017.23 1017.23 1017.11 1017.11 1017.23 1017.39 1017.59 1017.67 1017.63 1017.67 1017.83 1017.79 1017.75 1017.71 1017.67 1017.63 1017.71 1017.75 1017.83 1017.83 1017.71 1017.79 1017.99 1018.19 1018.27 1018.35
1016.83 1016.71 1016.63 1016.71 1016.75 1016.71 1016.75 1016.83 1016.71 1016.63 1016.83 1016.71 1016.67 1016.67 1016.67 1016.75 1016.91 1016.95 1017.23 1017.31 1017.23 1017.35 1017.71 1017.95 1017.99 1018.15 1017.95 1017.63 1017.51 1017.47 1017.55 1017.55 1017.51 1017.51 1017.63 1017.67 1017.63 1017.79 1018.03 1018.11 1018.11 1018.23
1016.71 1016.75 1016.75 1016.75 1016.83 1016.95 1016.91 1016.91 1016.91 1016.91 1016.87 1016.79 1016.99 1016.91 1016.95 1017.03 1017.07 1017.07 1017.07 1017.23 1017.39 1017.43 1017.63 1017.95 1018.07 1018.15 1018.07 1017.75 1017.43 1017.27 1017.23 1017.35 1017.27 1017.23 1017.31 1017.47 1017.71 1017.95 1018.07 1018.07 1018.11 1018.15
1016.59 1016.63 1016.75 1016.83 1016.99 1017.15 1017.15 1017.07 1016.91 1016.79 1016.83 1016.63 1016.87 1016.99 1017.11 1017.07 1017.03 1017.15 1017.15 1017.11 1017.23 1017.39 1017.43 1017.71 1018.07 1018.19 1018.07 1017.83 1017.51 1017.23 1017.11 1017.23 1017.23 1017.27 1017.39 1017.55 1017.83 1017.95 1018.03 1018.15 1018.07 1018.03
1016.67 1016.67 1016.75 1016.83 1016.91 1016.95 1016.91 1017.07 1017.03 1016.95 1016.79 1016.71 1016.79 1016.91 1017.07 1017.03 1017.07 1017.27 1017.35 1017.27 1017.27 1017.35 1017.15 1017.51 1017.95 1018.03 1017.95 1017.71 1017.51 1017.27 1017.03 1016.99 1017.15 1017.43 1017.71 1017.83 1017.87 1018.15 1018.07 1018.15 1018.27 1018.35
1016.63 1016.63 1016.71 1016.83 1016.87 1016.79 1016.63 1016.55 1016.43 1016.43 1016.55 1016.71 1016.83 1016.83 1016.95 1017.07 1017.19 1017.27 1017.43 1017.43 1017.27 1017.27 1017.43 1017.71 1017.91 1018.07 1018.03 1017.79 1017.39 1017.23 1016.99 1016.87 1017.07 1017.51 1017.99 1018.03 1018.03 1018.15 1018.35 1018.31 1018.35 1018.51
Wind_Speed
6 7 7 7 6 6 6 6 5 6 5 5 5 5 5 4 4 4 6 4 4 5 4 4 3 3 4 3 3 1 2 2 1 2 1 1 1 2 3 4 4 2
5 6 7 7 6 5 6 6 6 6 6 5 6 5 5 5 4 5 5 5 4 5 4 4 4 4 3 3 3 3 3 3 2 2 2 0 1 2 2 4 4 4
6 5 6 7 7 6 7 6 5 6 6 5 4 5 6 5 5 4 5 4 5 5 5 4 4 4 3 4 4 4 4 3 3 1 3 2 1 2 2 3 3 4
6 6 6 7 6 7 6 6 6 6 5 5 5 4 5 4 5 5 4 5 5 4 6 5 5 5 4 4 4 3 3 3 3 2 2 1 1 1 2 2 3 4
7 6 5 7 6 7 7 6 8 7 7 6 5 5 4 3 5 5 5 6 5 4 5 6 5 5 5 4 3 3 3 3 4 3 3 3 2 2 3 3 4 4
6 6 5 6 6 8 7 7 7 7 7 7 7 6 5 4 4 4 4 6 5 5 6 6 5 4 5 4 4 4 3 4 3 3 3 3 3 3 3 3 3 4
8 8 7 7 5 8 7 8 6 8 7 7 5 6 5 5 4 4 4 5 5 4 4 5 5 5 5 4 4 4 4 3 3 4 4 4 3 4 3 3 4 3
9 9 6 6 5 7 7 6 5 6 6 7 7 7 7 6 6 5 5 5 4 5 5 4 5 5 5 5 5 5 4 5 3 3 4 3 3 3 3 4 3 3
10 9 8 7 7 7 8 8 7 6 5 6 8 7 8 8 7 6 6 6 5 4 4 4 6 5 4 5 5 5 5 5 4 5 5 5 4 4 4 4 4 3
9 9 11 9 9 7 9 9 9 8 7 6 6 6 7 6 7 7 7 7 6 5 4 5 6 5 4 4 5 6 5 5 4 3 5 4 4 4 5 4 4 3
10 10 10 10 9 8 8 9 9 10 9 9 7 6 7 7 6 5 6 6 6 6 5 5 5 6 5 5 5 5 6 5 5 4 4 5 4 4 4 3 4 5
10 9 10 11 10 8 8 8 8 8 10 9 9 8 7 8 7 5 6 6 6 5 5 5 5 5 6 5 5 5 6 6 5 5 5 5 4 4 5 5 4 4
8 8 9 9 9 8 8 7 8 7 9 11 10 8 7 8 7 7 6 6 6 6 5 5 6 6 5 5 5 4 4 5 4 3 4 5 5 6 6 5 4 4
3 3 2 4 7 7 6 5 5 7 7 9 10 9 8 8 7 7 6 6 6 7 5 4 5 5 5 4 4 4 4 3 3 3 4 4 3 2 2 3 4 3
1 2 3 3 0 3 4 2 3 1 1 4 9 9 8 7 7 7 7 6 6 7 6 4 5 5 5 5 4 4 3 3 3 4 4 3 3 3 4 4 4 4
13 8 7 7 7 6 5 6 6 4 4 5 3 1 2 3 6 6 5 6 7 7 7 5 4 8 14 15 5 3 4 4 2 1 2 3 4 4 4 4 5 5
1 7 6 5 5 4 4 6 5 3 4 4 4 4 4 4 4 3 3 2 3 3 3 5 6 6 10 6 14 8 6 5 4 4 4 5 4 4 4 5 4 4
1 2 3 2 1 0 2 3 4 4 3 3 3 4 3 3 3 2 1 0 2 3 4 4 4 6 8 2 3 3 5 3 6 5 6 5 5 5 6 5 6 6
6 7 7 5 2 2 1 1 2 2 2 2 3 2 3 3 3 3 2 1 2 3 4 2 3 6 5 5 4 4 1 3 4 6 6 6 5 5 4 4 4 4
8 9 8 7 4 2 2 2 1 1 2 2 4 4 3 2 2 2 2 3 3 2 4 4 2 1 4 4 4 5 4 3 4 4 4 4 4 3 2 1 1 1
6 7 6 2 1 0 2 3 3 3 3 2 2 3 5 5 3 3 3 3 4 3 3 4 2 1 4 1 1 0 4 5 4 4 2 1 2 3 4 5 4 4
1 0 1 2 2 1 1 1 1 2 1 1 1 1 2 4 4 4 5 4 3 4 4 3 1 6 5 3 3 2 2 4 6 7 4 1 1 5 5 3 3 3
1 1 1 1 1 1 0 0 1 2 2 2 1 1 0 1 2 3 4 6 6 5 6 3 2 3 4 2 3 3 1 4 4 5 4 3 5 5 4 3 2 2
2 3 2 2 1 1 1 0 1 1 1 1 2 2 2 2 2 3 2 3 4 6 6 6 4 1 2 2 3 3 1 0 1 4 4 6 6 5 4 3 3 5
2 3 3 2 1 1 0 2 3 3 2 2 2 2 2 1 1 2 2 1 1 3 7 6 4 2 1 2 4 4 2 2 3 3 4 4 5 5 4 5 4 6
5 4 3 2 2 2 2 1 1 2 4 5 3 3 3 3 2 1 1 2 2 1 4 4 4 2 3 5 6 6 4 4 4 4 3 3 4 4 4 4 4 4
Wind_Direction
155 160 164 166 168 168 169 173 174 172 175 170 177 195 190 196 196 167 171 165 156 170 170 176 177 180 179 174 168 183 147 178 207 233 239 65 325 342 321 330 327 292
172 161 156 164 168 167 173 168 167 162 175 175 185 189 197 182 192 161 167 167 167 174 179 177 180 185 180 179 188 184 176 185 222 228 187 356 344 19 328 311 310 310
169 168 159 162 166 175 172 178 162 170 175 185 170 173 183 181 181 169 174 169 175 174 181 180 185 193 198 185 187 183 184 197 221 237 141 173 237 285 278 302 306 307
179 174 169 174 173 180 180 174 170 170 174 179 171 179 174 175 177 180 179 187 181 186 184 184 189 193 194 179 179 194 196 198 211 167 152 160 229 259 291 273 287 296
179 182 180 181 179 177 178 171 175 173 176 175 174 178 180 165 174 178 174 184 190 194 182 188 191 187 189 178 184 200 215 211 210 171 169 190 223 231 254 261 270 273
177 184 192 194 180 179 177 182 175 166 166 164 178 171 172 169 170 178 167 178 188 195 179 187 188 188 181 173 186 196 214 215 215 178 190 203 226 229 249 257 257 261
178 186 197 194 182 179 171 177 172 171 174 170 163 173 174 170 185 190 186 183 186 195 191 184 187 187 185 178 181 195 212 219 224 201 199 211 213 243 256 270 283 268
179 184 195 191 185 174 167 176 179 175 177 169 173 170 172 179 183 189 190 190 195 195 199 191 193 186 187 180 189 196 211 217 226 184 205 214 216 229 255 260 265 267
176 178 188 194 198 181 181 181 185 188 190 173 178 173 175 180 186 188 185 192 200 193 196 190 190 194 192 189 190 192 203 215 218 191 195 212 219 239 249 255 269 269
177 176 185 195 202 192 188 187 189 188 189 192 180 168 174 181 181 189 185 190 192 198 194 180 181 193 201 197 192 193 196 205 225 202 205 203 212 227 233 235 235 246
182 183 183 193 199 205 202 195 187 184 184 189 186 187 179 182 186 169 159 170 182 193 190 186 183 191 199 204 202 194 194 202 215 212 198 203 213 224 244 237 227 227
182 184 186 189 198 203 206 199 200 183 178 182 186 191 180 178 176 181 169 180 188 191 190 195 194 192 195 205 205 196 194 202 203 201 201 211 219 229 243 246 238 226
183 186 186 191 195 201 201 204 201 202 178 180 182 186 173 172 173 185 180 182 191 193 198 194 199 201 196 199 212 216 201 189 178 182 214 209 214 229 230 229 229 231
175 157 172 192 192 199 200 203 207 207 192 178 178 178 176 179 184 186 185 180 188 196 204 198 194 201 200 198 203 210 201 201 192 202 213 200 205 240 265 265 250 245
32 26 25 22 55 145 143 102 25 38 72 147 176 172 181 186 192 187 186 189 186 190 198 201 194 201 202 198 206 200 191 193 209 224 209 210 233 249 257 260 263 254
357 7 39 37 35 37 36 56 56 43 59 70 63 57 169 188 187 187 183 187 190 188 191 190 62 26 355 323 210 186 182 173 179 165 209 206 206 231 246 250 257 256
347 311 346 31 19 5 46 63 61 56 69 81 93 83 82 87 85 82 76 77 101 103 92 84 124 177 189 249 293 241 178 195 201 211 218 208 198 198 231 242 244 250
271 258 275 246 154 5 27 42 51 60 76 95 102 102 101 96 103 126 120 159 108 100 92 94 127 181 222 319 326 303 293 237 197 215 210 205 207 214 222 227 235 243
240 245 253 263 238 182 175 89 81 50 55 83 124 134 103 101 100 96 100 103 117 120 133 155 199 186 200 211 257 287 193 218 265 219 206 209 206 216 231 247 259 260
213 220 232 240 244 222 164 176 166 198 225 201 141 126 107 100 109 114 105 73 69 117 167 181 159 42 242 208 237 255 239 170 217 261 245 213 189 157 143 105 21 14
211 211 217 197 111 132 163 185 186 179 165 134 111 134 143 152 158 144 124 127 111 108 112 125 148 326 240 197 37 237 226 204 209 217 244 116 95 90 92 102 106 114
186 24 33 44 57 9 3 122 136 142 120 103 122 166 123 123 131 136 139 140 140 142 136 137 37 360 344 55 80 29 260 210 203 193 177 148 68 78 88 96 121 129
117 106 120 87 97 118 175 128 99 76 115 149 170 243 175 115 148 140 141 146 152 158 155 144 122 352 332 354 78 60 35 217 181 154 145 127 94 99 95 80 85 102
107 147 178 223 245 217 235 185 138 148 173 183 166 181 179 158 117 103 108 137 164 161 162 155 142 322 305 349 47 70 149 237 166 127 120 121 120 111 106 81 36 68
26 52 48 36 64 81 195 192 201 204 201 205 147 93 74 66 76 102 85 16 84 155 169 139 131 147 140 92 74 65 82 82 78 78 100 107 118 113 111 112 93 67
10 28 40 52 17 14 8 55 176 203 177 162 146 145 130 100 77 101 216 201 191 156 111 125 123 92 30 31 72 71 79 96 80 97 100 105 104 113 119 115 112 118